Waarnemingen

Advertentie
Mijn weer
Kirkwall, Groot Brittannië (3017): temperatuur & dauwpunt: 12.12.2017 03:00:00 - 18.12.2017 03:00:00 (GMT)Kirkwall, Groot Brittannië (3017): temperatuur -20cm & temperatuur -100cm: 12.12.2017 03:00:00 - 18.12.2017 03:00:00 (GMT)Kirkwall, Groot Brittannië (3017): windsnelheid & windstoten: 12.12.2017 03:00:00 - 18.12.2017 03:00:00 (GMT)Kirkwall, Groot Brittannië (3017): windrichting: 12.12.2017 03:00:00 - 18.12.2017 03:00:00 (GMT)Kirkwall, Groot Brittannië (3017): luchtdruk: 12.12.2017 03:00:00 - 18.12.2017 03:00:00 (GMT)Kirkwall, Groot Brittannië (3017): zicht: 12.12.2017 03:00:00 - 18.12.2017 03:00:00 (GMT)Kirkwall, Groot Brittannië (3017): Zonneschijnduur: 12.12.2017 03:00:00 - 18.12.2017 03:00:00 (GMT)Kirkwall, Groot Brittannië (3017): neerslag: 12.12.2017 03:00:00 - 18.12.2017 03:00:00 (GMT)
Datum & Tijd tt [°C] td [°C] tt -20cm [°C] tt -100cm [°C] ff [km/u] ff [kn] fx [km/u] fx [kn] dd ppp [hPa] vv [km] sd [min] rr [mm]
18.12.2017 03:00:00 - - - - - - - - - - - - -
18.12.2017 02:00:00 4,5 2,7 - - 21 11 - - W 1018,4 17 0 0,0
18.12.2017 01:00:00 4,2 2,3 - - 18 10 - - W 1017,6 16 0 0,0
18.12.2017 00:00:00 5,2 2,4 - - 16 9 - - WNW 1016,5 19 - 0,0
17.12.2017 23:00:00 5,4 2,6 - - 18 10 - - WNW 1016,0 21 0 0,0
17.12.2017 22:00:00 5,2 2,8 - - 18 10 - - WNW 1015,1 18 0 0,0
17.12.2017 21:00:00 5,3 3,1 - - 21 11 - - W 1014,2 17 0 0,0
17.12.2017 20:00:00 5,4 2,4 - - 21 11 - - WNW 1013,3 17 0 0,0
17.12.2017 19:00:00 5,4 3,5 - - 28 15 46 25 WNW 1012,0 21 0 0,0
17.12.2017 18:00:00 5,1 3,4 - - 28 15 65 35 W 1010,6 16 0 0,4
17.12.2017 17:00:00 5,4 3,4 - - 28 15 54 29 WNW 1009,5 13 0 0,2
17.12.2017 16:00:00 6,3 2,5 - - 31 17 61 33 WNW 1008,5 14 0 0,0
17.12.2017 15:00:00 6,4 2,6 - - 31 17 57 31 WNW 1006,8 13 0 0,0
17.12.2017 14:00:00 6,6 3,3 - - 34 18 57 31 WNW 1005,8 12 18 0,0
17.12.2017 13:00:00 7,0 5,7 - - 28 15 59 32 WNW 1004,2 10 0 1,0
17.12.2017 12:00:00 7,9 7,9 - - 26 14 50 27 W 1002,5 3,6 0 0,6
17.12.2017 11:00:00 6,4 6,4 - - 39 21 54 29 ZW 1002,3 3,9 0 0,6
17.12.2017 10:00:00 6,0 5,9 - - 37 20 54 29 ZZW 1002,9 6 0 3,4
17.12.2017 09:00:00 6,0 5,8 3,7 6,0 35 19 50 27 Z 1003,7 8 0 3,0
17.12.2017 08:00:00 5,6 5,4 - - 31 17 46 25 Z 1005,2 7 0 1,4
17.12.2017 07:00:00 5,2 4,9 - - 31 17 - - Z 1006,3 13 0 0,2
17.12.2017 06:00:00 4,8 4,6 - - 31 17 - - Z 1007,9 18 0 0,0
17.12.2017 05:00:00 4,4 4,2 - - 28 15 - - Z 1009,6 10 0 0,6
17.12.2017 04:00:00 4,1 2,9 - - 26 14 - - Z 1011,3 29 0 0,0
17.12.2017 03:00:00 3,5 1,9 - - 24 13 - - Z 1012,5 50 0 0,0
17.12.2017 02:00:00 2,4 2,0 - - 16 9 - - Z 1013,7 45 0 0,0
17.12.2017 01:00:00 1,7 1,3 - - 18 10 - - Z 1014,9 50 0 0,0
17.12.2017 00:00:00 1,6 1,2 - - 18 10 - - Z 1015,4 45 - -
16.12.2017 23:00:00 2,4 1,7 - - 18 10 - - ZZW 1015,9 50 0 0,0
16.12.2017 22:00:00 1,5 0,2 - - 16 9 - - ZZW 1016,3 50 0 0,0
16.12.2017 21:00:00 2,0 1,0 - - 16 9 - - ZW 1016,7 50 0 0,0
16.12.2017 20:00:00 1,8 0,6 - - 13 7 - - WZW 1016,9 50 0 0,0
16.12.2017 19:00:00 1,1 -0,6 - - 11 6 - - WZW 1016,9 45 0 0,0
16.12.2017 18:00:00 0,7 -0,8 - - 11 6 - - W 1016,7 45 0 0,0
16.12.2017 17:00:00 0,8 -0,3 - - 11 6 - - WZW 1016,2 35 0 0,0
16.12.2017 16:00:00 1,0 0,3 - - 13 7 - - WZW 1015,9 50 0 0,0
16.12.2017 15:00:00 1,2 -0,1 - - 11 6 - - W 1015,5 35 30 0,0
16.12.2017 14:00:00 3,4 2,3 - - 9 5 - - NNW 1015,2 13 48 0,0
16.12.2017 13:00:00 2,2 0,5 - - 21 11 - - W 1014,4 45 36 0,0
16.12.2017 12:00:00 3,1 1,9 - - 11 6 - - N 1014,1 35 30 0,0
16.12.2017 11:00:00 1,8 1,0 - - 15 8 46 25 NNW 1013,8 50 0 1,0
16.12.2017 10:00:00 2,3 0,8 - - 21 11 - - NW 1013,3 45 0 0,0
16.12.2017 09:00:00 2,6 0,6 4,0 6,2 22 12 - - NW 1012,6 50 0 0,0
16.12.2017 08:00:00 2,9 0,8 - - 21 11 52 28 NW 1011,8 45 0 0,0
16.12.2017 07:00:00 3,4 1,1 - - 24 13 - - NNW 1011,1 30 0 0,0
16.12.2017 06:00:00 3,2 -0,3 - - 18 10 - - WNW 1010,5 40 0 0,0
16.12.2017 05:00:00 3,0 -0,2 - - 22 12 - - NW 1010,4 40 0 0,0
16.12.2017 04:00:00 1,5 -0,2 - - 16 9 - - W 1010,4 40 0 0,0
16.12.2017 03:00:00 2,1 0,9 - - 18 10 48 26 NNW 1010,1 45 0 0,2
16.12.2017 02:00:00 2,4 0,8 - - 16 9 - - NW 1009,7 40 0 0,2
16.12.2017 01:00:00 1,7 0,6 - - 13 7 - - WNW 1009,6 40 0 0,0
16.12.2017 00:00:00 2,0 0,7 - - 21 11 - - WNW 1009,7 8 - 0,0
15.12.2017 23:00:00 1,9 0,7 - - 18 10 - - WNW 1009,2 30 0 0,2
15.12.2017 22:00:00 1,7 0,6 - - 29 16 - - NW 1009,2 2,7 0 0,2
15.12.2017 21:00:00 2,2 0,4 - - 35 19 46 25 NNW 1008,7 9 0 0,0
15.12.2017 20:00:00 2,7 0,2 - - 28 15 - - NNW 1008,3 45 0 0,0
15.12.2017 19:00:00 2,0 1,1 - - 26 14 52 28 NNW 1008,1 40 0 0,0
15.12.2017 18:00:00 2,9 0,9 - - 24 13 - - NW 1007,3 26 0 0,4
15.12.2017 17:00:00 2,3 1,1 - - 16 9 48 26 NW 1006,8 30 0 0,0
15.12.2017 16:00:00 2,3 1,0 - - 37 20 52 28 NNW 1006,8 11 0 0,2
15.12.2017 15:00:00 2,6 0,8 - - 24 13 55 30 N 1005,6 40 6 0,0
15.12.2017 14:00:00 4,4 0,8 - - 24 13 - - NNW 1005,1 30 24 0,0
15.12.2017 13:00:00 4,5 0,4 - - 34 18 50 27 NNW 1004,7 22 30 0,0
15.12.2017 12:00:00 4,5 1,5 - - 26 14 46 25 NNW 1004,4 21 24 0,0
15.12.2017 11:00:00 4,4 2,5 - - 28 15 - - N 1004,0 29 18 0,0
15.12.2017 10:00:00 3,7 1,8 - - 24 13 50 27 NNW 1003,3 45 0 0,0
15.12.2017 09:00:00 4,4 1,4 4,0 6,2 28 15 - - N 1002,5 30 0 0,0
15.12.2017 08:00:00 4,0 2,1 - - 24 13 48 26 N 1001,6 30 0 0,2
15.12.2017 07:00:00 4,1 1,5 - - 22 12 - - N 1000,7 35 0 0,0
15.12.2017 06:00:00 4,6 2,5 - - 24 13 57 31 N 999,8 30 0 0,2
15.12.2017 05:00:00 4,9 1,9 - - 37 20 48 26 N 998,9 25 0 0,0
15.12.2017 04:00:00 4,3 1,1 - - 41 22 70 38 N 998,0 40 0 0,0
15.12.2017 03:00:00 5,4 1,3 - - 42 23 59 32 NNO 996,8 25 0 0,0
15.12.2017 02:00:00 5,7 1,8 - - 44 24 57 31 NNO 995,1 20 0 0,0
15.12.2017 01:00:00 6,2 2,3 - - 44 24 61 33 NNO 993,3 17 0 0,0
15.12.2017 00:00:00 5,8 3,6 - - 42 23 65 35 NNO 991,9 17 - 0,2
14.12.2017 23:00:00 5,4 4,0 - - 52 28 65 35 NNO 990,4 5 0 0,4
14.12.2017 22:00:00 5,0 4,2 - - 42 23 57 31 NNO 989,2 12 0 0,4
14.12.2017 21:00:00 4,8 3,7 - - 22 12 - - N 987,5 7 0 0,2
14.12.2017 20:00:00 3,7 3,0 - - 8 4 - - NNW 986,3 50 0 0,0
14.12.2017 19:00:00 3,4 1,8 - - 11 6 - - NO 985,2 50 0 0,0
14.12.2017 18:00:00 4,0 3,7 - - 15 8 - - NO 983,9 30 0 0,0
14.12.2017 17:00:00 1,7 1,2 - - 13 7 - - ONO 982,3 45 0 0,0
14.12.2017 16:00:00 1,3 0,8 - - 11 6 - - O 980,7 50 0 0,0
14.12.2017 15:00:00 2,4 2,0 - - 9 5 - - OZO 978,9 35 0 0,0
14.12.2017 14:00:00 3,1 2,5 - - 18 10 48 26 Z 977,6 35 0 0,2
14.12.2017 13:00:00 3,4 2,7 - - 29 16 46 25 ZZW 976,3 14 0 0,0
14.12.2017 12:00:00 3,8 3,2 - - 29 16 50 27 ZW 975,7 35 0 1,2
14.12.2017 11:00:00 3,2 2,7 - - 26 14 48 26 ZZW 975,7 3,8 0 2,8
14.12.2017 10:00:00 4,6 3,6 - - 26 14 - - ZW 974,9 15 0 0,0
14.12.2017 09:00:00 3,9 2,8 4,0 6,4 29 16 - - ZW 974,9 18 0 0,0
14.12.2017 08:00:00 3,2 2,0 - - 9 5 46 25 WZW 975,0 25 0 0,0
14.12.2017 07:00:00 3,4 2,4 - - 26 14 - - ZW 974,8 22 0 0,2
14.12.2017 06:00:00 2,4 1,1 - - 18 10 - - WZW 974,8 40 0 0,0
14.12.2017 05:00:00 2,8 1,8 - - 24 13 - - WZW 974,9 8 0 0,4
14.12.2017 04:00:00 2,7 1,7 - - 22 12 - - W 975,0 24 0 0,2
14.12.2017 03:00:00 2,1 0,7 - - 18 10 - - WNW 975,4 5 0 0,4
14.12.2017 02:00:00 1,6 0,4 - - 8 4 - - W 975,4 40 0 0,4
14.12.2017 01:00:00 1,6 0,8 - - 18 10 - - ZW 975,5 40 0 0,0
14.12.2017 00:00:00 2,4 1,0 - - 28 15 - - W 975,7 5 - 1,2
13.12.2017 23:00:00 2,7 0,9 - - 24 13 - - WZW 975,4 35 0 0,0
13.12.2017 22:00:00 2,6 0,8 - - 22 12 - - WZW 975,4 45 0 0,0
13.12.2017 21:00:00 2,3 0,8 - - 22 12 - - WZW 975,5 40 0 0,0
13.12.2017 20:00:00 2,4 0,3 - - 21 11 - - W 975,7 40 0 0,6
13.12.2017 19:00:00 2,7 1,0 - - 24 13 - - WZW 975,5 25 0 1,4
13.12.2017 18:00:00 2,0 1,4 - - 22 12 - - ZW 975,6 26 0 0,6
13.12.2017 17:00:00 1,5 0,8 - - 8 4 - - W 975,9 35 0 0,0
13.12.2017 16:00:00 1,6 1,1 - - 22 12 50 27 W 975,8 35 0 0,2
13.12.2017 15:00:00 3,6 2,3 - - 28 15 57 31 W 975,8 21 0 0,0
13.12.2017 14:00:00 2,6 1,8 - - 26 14 59 32 WZW 975,8 50 0 0,4
13.12.2017 13:00:00 3,6 2,4 - - 28 15 50 27 WZW 976,2 3,4 6 0,2
13.12.2017 12:00:00 3,3 2,3 - - 34 18 59 32 WZW 976,9 40 0 0,0
13.12.2017 11:00:00 3,6 2,7 - - 31 17 - - ZW 977,5 40 0 0,0
13.12.2017 10:00:00 3,7 2,6 - - 34 18 46 25 ZZW 978,1 50 0 0,8
13.12.2017 09:00:00 3,3 2,4 4,2 6,7 26 14 - - Z 979,3 12 0 1,0
13.12.2017 08:00:00 3,9 2,5 - - 22 12 - - Z 980,4 20 0 0,0
13.12.2017 07:00:00 3,1 2,0 - - 22 12 - - Z 981,3 25 0 0,0
13.12.2017 06:00:00 3,4 2,5 - - 26 14 - - ZZW 982,6 22 0 0,0
13.12.2017 05:00:00 3,8 2,8 - - 26 14 - - ZZW 983,6 20 0 0,0
13.12.2017 04:00:00 3,3 2,3 - - 21 11 - - W 984,7 19 0 0,4
13.12.2017 03:00:00 3,3 2,0 - - 21 11 61 33 WZW 985,4 24 0 0,0
13.12.2017 02:00:00 3,8 1,9 - - 29 16 55 30 WZW 985,8 45 0 0,6
13.12.2017 01:00:00 3,9 3,2 - - 24 13 - - ZW 986,4 20 0 0,0
13.12.2017 00:00:00 3,3 2,4 - - 22 12 - - ZZW 987,1 50 - 0,0
12.12.2017 23:00:00 3,6 3,1 - - 29 16 - - ZZW 987,6 15 0 0,4
12.12.2017 22:00:00 3,0 2,4 - - 24 13 - - Z 988,6 12 0 0,8
12.12.2017 21:00:00 3,9 2,3 - - 31 17 - - ZZW 989,7 13 0 0,0
12.12.2017 20:00:00 4,0 1,9 - - 24 13 - - Z 990,7 35 0 0,0
12.12.2017 19:00:00 3,8 2,0 - - 24 13 - - Z 991,5 45 0 0,0
12.12.2017 18:00:00 3,7 2,5 - - 24 13 - - Z 992,5 35 0 0,0
12.12.2017 17:00:00 2,9 1,8 - - 21 11 - - Z 993,8 40 0 0,0
12.12.2017 16:00:00 1,6 -0,1 - - 16 9 - - Z 994,8 30 0 0,0
12.12.2017 15:00:00 2,1 0,1 - - 15 8 - - Z 995,4 35 0 0,0
12.12.2017 14:00:00 3,4 0,9 - - 16 9 - - ZW 996,4 24 36 0,0
12.12.2017 13:00:00 4,0 1,1 - - 11 6 - - ZZW 997,3 30 0 0,0
12.12.2017 12:00:00 3,0 0,5 - - 11 6 - - WZW 997,7 30 0 0,0
12.12.2017 11:00:00 3,3 1,8 - - 8 4 - - WZW 998,4 27 0 0,0
12.12.2017 10:00:00 2,9 1,8 - - 9 5 - - WZW 998,6 35 0 0,0
12.12.2017 09:00:00 2,3 1,0 4,2 6,7 8 4 - - ZW 998,4 35 0 0,0
12.12.2017 08:00:00 2,5 1,3 - - 8 4 - - WZW 998,5 45 0 0,0
12.12.2017 07:00:00 3,2 1,6 - - 5 3 - - WNW 998,5 50 0 0,0
12.12.2017 06:00:00 1,9 0,8 - - 9 5 - - W 998,4 45 0 0,0
12.12.2017 05:00:00 1,8 0,5 - - 11 6 - - WNW 998,2 30 0 0,0
12.12.2017 04:00:00 2,2 0,6 - - 13 7 - - W 998,0 30 0 0,0
12.12.2017 03:00:00 3,6 1,5 - - 11 6 - - NW 998,2 45 0 0,0

tt = temperatuur
td = dauwpunt
tt -20cm = temperatuur -20cm
tt -100cm = temperatuur -100cm
ff = windsnelheid
fx = windstoten
dd = windrichting
ppp = luchtdruk
vv = zicht
sd = Zonneschijnduur
rr = neerslag

Weerstations in de omgeving